Terminal Aerodrome Forecast
Issued by NWS Milwaukee/Sullivan, WI

Home | Current Version | Previous Version | Text Only | Print | Product List | Glossary On
Versions: 1 2 3 4 5 6 7 8 9 10 11 12 13 14 15 16 17 18 19 20 21 22 23 24 25 26 27 28 29 30 31 32 33 34 35 36 37 38 39 40 41 42 43 44 45 46 47 48
000
FTUS43 KMKX 040158 AAA
TAFMSN
TAF AMD
KMSN 040158Z 0402/0424 06006KT P6SM SCT030
      TEMPO 0402/0404 BKN030
     FM040600 VRB03KT 3SM BR SCT200
     FM041100 00000KT 3SM BR SCT040
     FM041400 VRB03KT P6SM SCT080=

USA.gov is the U.S. government's official web portal to all federal, state and local government web resources and services.